Asheville, NC

10:45 PM EST on December 12, 2017 (GMT -0500)
Asheville Regional

Weather History for KAVL - December, 2008

Change the Weather History Date:

Tuesday, December 23, 2008

  Actual Average Record
Temperature  
Mean Temperature 29 °F 38 °F  
Max Temperature 38 °F 48 °F 69 °F (1933)
Min Temperature 19 °F 28 °F 1 °F (1989)
Degree Days  
Heating Degree Days 36 27  
Month to date heating degree days 559 574  
Since 1 July heating degree days 1578 1441  
Cooling Degree Days 0 0  
Month to date cooling degree days 0 0  
Year to date cooling degree days 875 863  
Moisture  
Dew Point 11 °F    
Average Humidity 47    
Maximum Humidity 69    
Minimum Humidity 25    
Precipitation  
Precipitation 0.00 in 0.11 in 2.22 in (1990)
Month to date precipitation 4.20 2.75  
Year to date precipitation 35.09 44.73  
Snow  
Snow 0.00 in 0.00 in 2.20 in (1963)
Month to date snowfall T 0.4  
Since 1 July snowfall T 0.5  
Snow Depth -    
Sea Level Pressure  
Sea Level Pressure 30.54 in    
Wind  
Wind Speed 7 mph (SE)    
Max Wind Speed 16 mph    
Max Gust Speed 21 mph    
Visibility 10 miles    
Events      
T = Trace of Precipitation, MM = Missing Value Source: NWS Daily Summary

Daily Weather History Graph

Daily Weather History Graph

Search for Another Location

Airport or City:

Trip Planner

Search our weather history database for the weather conditions in past years. The results will help you decide how hot, cold, wet, or windy it might be!

Date:

Astronomy

Dec. 23, 2008 Rise Set
Actual Time 7:36 AM EST 5:22 PM EST
Civil Twilight 7:08 AM EST 5:50 PM EST
Nautical Twilight 6:36 AM EST 6:22 PM EST
Astronomical Twilight 6:05 AM EST 6:53 PM EST
Moon 4:20 AM EST (12/23) 2:20 PM EST (12/23)
Length of Visible Light 10h 42m
Length of Day
9h 45m
Waning Crescent, 13% of the Moon is Illuminated
Dec 23
Waning Crescent
Dec 27
New
Jan 4
First Quarter
Jan 10
Full
Jan 17
Last Quarter

Hourly Weather History & Observations

Time (EST) Temp. Windchill Dew Point Humidity Pressure Visibility Wind Dir Wind Speed Gust Speed Precip Events Conditions
12:54 AM 19.0 °F - 7.0 °F 59% 30.54 in 10.0 mi Calm Calm - N/A   Clear
1:54 AM 19.9 °F - 10.0 °F 65% 30.54 in 10.0 mi Calm Calm - N/A   Clear
2:54 AM 19.9 °F 14.9 °F 10.0 °F 65% 30.55 in 10.0 mi SE 3.5 mph - N/A   Clear
3:54 AM 19.9 °F 14.9 °F 10.0 °F 65% 30.56 in 10.0 mi SE 3.5 mph - N/A   Clear
4:54 AM 21.0 °F 14.6 °F 10.9 °F 65% 30.56 in 10.0 mi SSE 4.6 mph - N/A   Clear
5:54 AM 21.0 °F - 10.9 °F 65% 30.58 in 10.0 mi Calm Calm - N/A   Overcast
6:54 AM 21.9 °F 17.2 °F 10.0 °F 60% 30.62 in 10.0 mi SSE 3.5 mph - N/A   Mostly Cloudy
7:54 AM 23.0 °F 13.1 °F 10.0 °F 58% 30.60 in 10.0 mi South 9.2 mph - N/A   Mostly Cloudy
8:54 AM 24.1 °F 16.0 °F 9.0 °F 53% 30.62 in 10.0 mi SE 6.9 mph - N/A   Overcast
9:54 AM 28.0 °F 20.8 °F 5.0 °F 38% 30.63 in 10.0 mi SE 6.9 mph - N/A   Partly Cloudy
10:54 AM 30.9 °F 21.7 °F 6.1 °F 35% 30.62 in 10.0 mi SE 11.5 mph 18.4 mph N/A   Overcast
11:54 AM 30.9 °F 22.8 °F 3.9 °F 32% 30.59 in 10.0 mi SE 9.2 mph - N/A   Clear
12:54 PM 36.0 °F 29.6 °F 3.0 °F 25% 30.55 in 10.0 mi SE 8.1 mph 17.3 mph N/A   Clear
1:54 PM 35.6 °F 28.6 °F 3.2 °F 26% 30.48 in 10.0 mi SSE 9.2 mph - N/A   Clear
2:54 PM 36.0 °F 30.3 °F 3.0 °F 25% 30.51 in 10.0 mi SSE 6.9 mph - N/A   Mostly Cloudy
3:54 PM 35.1 °F 26.9 °F 5.0 °F 28% 30.50 in 10.0 mi SSE 11.5 mph - N/A   Overcast
4:54 PM 35.1 °F 30.1 °F 8.1 °F 33% 30.50 in 10.0 mi SE 5.8 mph - N/A   Overcast
5:54 PM 34.0 °F 26.0 °F 10.9 °F 38% 30.50 in 10.0 mi SE 10.4 mph - N/A   Overcast
6:54 PM 34.0 °F 26.6 °F 10.9 °F 38% 30.51 in 10.0 mi ESE 9.2 mph 16.1 mph N/A   Overcast
7:54 PM 34.0 °F 26.6 °F 12.0 °F 40% 30.50 in 10.0 mi SE 9.2 mph 18.4 mph N/A   Overcast
8:54 PM 34.0 °F 27.2 °F 16.0 °F 48% 30.50 in 10.0 mi SSE 8.1 mph - N/A   Overcast
9:54 PM 34.0 °F 28.0 °F 16.0 °F 48% 30.49 in 10.0 mi SE 6.9 mph - N/A   Overcast
10:49 PM 33.8 °F 27.7 °F 24.8 °F 70% 30.44 in 10.0 mi SSE 6.9 mph - N/A   Overcast
10:54 PM 34.0 °F 26.6 °F 25.0 °F 70% 30.48 in 10.0 mi SSE 9.2 mph - N/A   Overcast
11:54 PM 35.1 °F 30.1 °F 26.1 °F 70% 30.47 in 10.0 mi South 5.8 mph - N/A   Overcast